Flag for Micronesia Weather past 2 weeks in Kolonia, Ponape, Micronesia

Now
87 °F

Cloudy.


Feels Like: 99 °F
Forecast: 78 / 85 °F
Wind: 5 mph from Northwest

Location: Pohnpei


UV Index: 3 (Moderate)

Visibility: 15 mi


Pressure: 29.80 "Hg

Humidity: 75%

Dew point: 78 °F

Location of KoloniaLocation

Historic Weather in Kolonia

°F

Kolonia temperature yesterday

Maximum temperature yesterday: 87 °F (at 12:51 PM)
Minimum temperature yesterday: 74 °F (at 3:54 AM)
Average temperature yesterday: 80 °F

Past Weeks' High & Low Weather Summary

 TemperatureHumidityPressure
High91 °F (Apr 16, 1:50 PM)98% (Apr 13, 3:55 AM)29.92 "Hg (Apr 13, 3:55 AM)
Low74 °F (Apr 15, 3:54 AM)62% (Apr 16, 11:54 AM)29.72 "Hg (Apr 1, 3:55 PM)
Average81 °F84%29.81 "Hg
* Reported Apr 1 1:51 PM — Apr 16 1:50 PM, Kolonia, Weather by CustomWeather, © 2014

Note: Actual official high and low records may vary slightly from our data, if they occured in-between our weather recording intervals... More about our weather records

Advertising

Historic Weather Conditions — Data for Previous 24 hours

 ConditionsComfort  
Time TempWeatherWind HumidityBarometerVisibility
1:50 PM
Apr 16
91 °FMore clouds than sun.6 mph68%29.82 "Hg15 mi
12:52 PM90 °FMore clouds than sun.6 mph65%29.84 "Hg15 mi
11:54 AM90 °FMore clouds than sun.5 mph62%29.85 "Hg15 mi
9:52 AM89 °FMore clouds than sun.7 mph69%29.88 "Hg15 mi
8:53 AM86 °FBroken clouds.5 mph70%29.88 "Hg15 mi
7:52 AM80 °FMostly cloudy.3 mph83%29.88 "Hg15 mi
6:51 AM75 °FMostly cloudy.3 mph92%29.85 "Hg15 mi
5:52 AM75 °FMostly cloudy.3 mph92%29.83 "Hg15 mi
4:53 AM75 °FMostly cloudy.3 mph95%29.83 "Hg15 mi
3:54 AM76 °FOvercast.3 mph91%29.81 "Hg15 mi
2:51 AM76 °FOvercast.3 mph91%29.81 "Hg15 mi
1:50 AM76 °FMostly cloudy.3 mph91%29.83 "Hg15 mi
12:50 AM76 °FMostly cloudy.3 mph96%29.85 "Hg15 mi
10:56 PM
Apr 15
77 °FOvercast.No wind94%29.88 "Hg15 mi
9:53 PM77 °FOvercast.5 mph97%29.87 "Hg15 mi
8:54 PM77 °FMostly cloudy.3 mph94%29.86 "Hg15 mi
7:52 PM79 °FMostly cloudy.2 mph88%29.85 "Hg15 mi
6:50 PM78 °FPassing clouds.3 mph91%29.84 "Hg15 mi
5:50 PM80 °FMostly cloudy.5 mph86%29.83 "Hg15 mi
4:50 PM84 °FCloudy.5 mph73%29.82 "Hg15 mi
3:53 PM86 °FMore clouds than sun.8 mph72%29.80 "Hg15 mi
Weather by CustomWeather, © 2014

See weather overview